When you browse on this site, cookies collect data to enhance your experience and personalize the content and advertising you see.
Visit our Privacy Policy to learn more. By continuing to use the site, you agree to this use of cookies and data.
  • In Deutschland
  • Länderverzeichnis
  • Für 7 Tage
  • Wassertemperatur
  • Wetterkarte
  • Widgets
  • user-avatar
    Anmelden

    Stündliche Wetter Salzburg

    Heute, 25 August, Sonntag

    Zeit Temperatur Niederschläge Wind Luftdruck Luftfeuchtigkeit
    00:00 +10°C° 0 mm 2 m/S 630 mmHg 89%
    01:00 +9°C° 0 mm 2 m/S 630 mmHg 89%
    02:00 +9°C° 0 mm 2 m/S 630 mmHg 88%
    03:00 +9°C° 0 mm 2 m/S 630 mmHg 88%
    04:00 +10°C° 0 mm 1 m/S 630 mmHg 87%
    05:00 +11°C° 0 mm 1 m/S 630 mmHg 86%
    06:00 +12°C° 0 mm 1 m/S 630 mmHg 84%
    07:00 +13°C° 0 mm 1 m/S 631 mmHg 82%
    08:00 +15°C° 0 mm 1 m/S 632 mmHg 73%
    09:00 +18°C° 0 mm 1 m/S 633 mmHg 64%
    10:00 +19°C° 0 mm 0 m/S 634 mmHg 55%
    11:00 +21°C° 0.2 mm 1 m/S 633 mmHg 56%
    12:00 +21°C° 0.2 mm 1 m/S 633 mmHg 56%
    13:00 +22°C° 0.2 mm 1 m/S 633 mmHg 56%
    14:00 +21°C° 0.9 mm 1 m/S 633 mmHg 62%
    15:00 +20°C° 0.9 mm 1 m/S 633 mmHg 69%
    16:00 +20°C° 0.9 mm 1 m/S 632 mmHg 75%
    17:00 +18°C° 0.9 mm 1 m/S 632 mmHg 80%
    18:00 +15°C° 0.9 mm 1 m/S 631 mmHg 84%
    19:00 +14°C° 0.9 mm 1 m/S 630 mmHg 89%
    20:00 +13°C° 0.3 mm 1 m/S 631 mmHg 90%
    21:00 +13°C° 0.3 mm 1 m/S 631 mmHg 91%
    22:00 +12°C° 0.3 mm 1 m/S 631 mmHg 91%
    23:00 +12°C° 0 mm 1 m/S 631 mmHg 91%

    Morgen, 26 August, Montag

    Zeit Temperatur Niederschläge Wind Luftdruck Luftfeuchtigkeit
    00:00 +11°C° 0 mm 1 m/S 630 mmHg 91%
    01:00 +11°C° 0 mm 1 m/S 630 mmHg 91%
    02:00 +11°C° 0 mm 1 m/S 630 mmHg 91%
    03:00 +10°C° 0 mm 1 m/S 630 mmHg 91%
    04:00 +10°C° 0 mm 1 m/S 630 mmHg 90%
    05:00 +11°C° 0 mm 1 m/S 630 mmHg 89%
    06:00 +12°C° 0 mm 1 m/S 630 mmHg 88%
    07:00 +13°C° 0 mm 1 m/S 631 mmHg 86%
    08:00 +16°C° 0 mm 1 m/S 632 mmHg 76%
    09:00 +19°C° 0 mm 1 m/S 632 mmHg 65%
    10:00 +20°C° 0 mm 0 m/S 633 mmHg 54%
    11:00 +22°C° 0.1 mm 1 m/S 633 mmHg 51%
    12:00 +23°C° 0.1 mm 1 m/S 633 mmHg 49%
    13:00 +24°C° 0.1 mm 1 m/S 634 mmHg 46%
    14:00 +23°C° 0.6 mm 1 m/S 633 mmHg 56%
    15:00 +21°C° 0.6 mm 1 m/S 632 mmHg 66%
    16:00 +20°C° 0.6 mm 1 m/S 631 mmHg 76%
    17:00 +18°C° 1.1 mm 1 m/S 631 mmHg 80%
    18:00 +16°C° 1.1 mm 1 m/S 630 mmHg 85%
    19:00 +14°C° 1.1 mm 1 m/S 630 mmHg 89%
    20:00 +14°C° 0.4 mm 1 m/S 630 mmHg 90%
    21:00 +13°C° 0.4 mm 1 m/S 630 mmHg 91%
    22:00 +13°C° 0.4 mm 1 m/S 630 mmHg 92%
    23:00 +12°C° 0 mm 1 m/S 630 mmHg 92%

    übermorgen, 27 August, Dienstag

    Zeit Temperatur Niederschläge Wind Luftdruck Luftfeuchtigkeit
    00:00 +12°C° 0 mm 1 m/S 630 mmHg 91%
    01:00 +11°C° 0 mm 1 m/S 629 mmHg 91%
    02:00 +11°C° 0 mm 1 m/S 629 mmHg 91%
    03:00 +11°C° 0 mm 1 m/S 629 mmHg 90%
    04:00 +11°C° 0 mm 1 m/S 629 mmHg 90%
    05:00 +12°C° 0 mm 1 m/S 630 mmHg 88%
    06:00 +13°C° 0 mm 1 m/S 630 mmHg 87%
    07:00 +14°C° 0 mm 1 m/S 630 mmHg 85%
    08:00 +16°C° 0 mm 1 m/S 631 mmHg 75%
    09:00 +20°C° 0 mm 1 m/S 632 mmHg 65%
    10:00 +20°C° 0 mm 0 m/S 633 mmHg 55%
    11:00 +23°C° 0.3 mm 1 m/S 633 mmHg 52%
    12:00 +23°C° 0.3 mm 1 m/S 634 mmHg 48%
    13:00 +24°C° 0.3 mm 1 m/S 634 mmHg 44%
    14:00 +23°C° 0.3 mm 1 m/S 633 mmHg 49%
    15:00 +23°C° 0.3 mm 1 m/S 633 mmHg 54%
    16:00 +22°C° 0.3 mm 1 m/S 632 mmHg 59%
    17:00 +20°C° 0.1 mm 1 m/S 632 mmHg 68%
    18:00 +16°C° 0.1 mm 1 m/S 631 mmHg 77%
    19:00 +13°C° 0.1 mm 0 m/S 630 mmHg 86%
    20:00 +14°C° 0 mm 1 m/S 630 mmHg 86%
    21:00 +13°C° 0 mm 1 m/S 630 mmHg 85%
    22:00 +13°C° 0 mm 2 m/S 630 mmHg 84%
    23:00 +13°C° 0 mm 1 m/S 630 mmHg 85%

    28 August, Mittwoch

    Zeit Temperatur Niederschläge Wind Luftdruck Luftfeuchtigkeit
    00:00 +12°C° 0 mm 1 m/S 630 mmHg 85%
    01:00 +12°C° 0 mm 1 m/S 630 mmHg 85%
    02:00 +12°C° 0 mm 1 m/S 630 mmHg 85%
    03:00 +12°C° 0 mm 1 m/S 629 mmHg 84%
    04:00 +11°C° 0 mm 1 m/S 629 mmHg 84%
    05:00 +12°C° 0 mm 1 m/S 630 mmHg 82%
    06:00 +13°C° 0 mm 1 m/S 630 mmHg 80%
    07:00 +14°C° 0 mm 1 m/S 631 mmHg 78%
    08:00 +18°C° 0 mm 1 m/S 631 mmHg 69%
    09:00 +20°C° 0 mm 1 m/S 632 mmHg 60%
    10:00 +21°C° 0 mm 0 m/S 633 mmHg 51%
    11:00 +24°C° 0 mm 1 m/S 633 mmHg 48%
    12:00 +24°C° 0 mm 1 m/S 633 mmHg 46%
    13:00 +25°C° 0 mm 1 m/S 633 mmHg 44%
    14:00 +24°C° 0.4 mm 1 m/S 632 mmHg 53%
    15:00 +23°C° 0.4 mm 1 m/S 631 mmHg 62%
    16:00 +21°C° 0.4 mm 1 m/S 631 mmHg 71%
    17:00 +19°C° 0.6 mm 1 m/S 630 mmHg 76%
    18:00 +18°C° 0.6 mm 1 m/S 629 mmHg 82%
    19:00 +15°C° 0.6 mm 1 m/S 629 mmHg 87%
    20:00 +14°C° 0.1 mm 1 m/S 629 mmHg 87%
    21:00 +14°C° 0.1 mm 1 m/S 629 mmHg 88%
    22:00 +13°C° 0.1 mm 2 m/S 629 mmHg 88%
    23:00 +13°C° 0 mm 2 m/S 628 mmHg 88%

    29 August, Donnerstag

    Zeit Temperatur Niederschläge Wind Luftdruck Luftfeuchtigkeit
    00:00 +12°C° 0 mm 2 m/S 628 mmHg 87%
    01:00 +12°C° 0 mm 2 m/S 628 mmHg 87%
    02:00 +12°C° 0.1 mm 2 m/S 628 mmHg 85%
    03:00 +11°C° 0.1 mm 1 m/S 628 mmHg 84%
    04:00 +11°C° 0.1 mm 1 m/S 628 mmHg 83%
    05:00 +12°C° 0.1 mm 1 m/S 628 mmHg 82%
    06:00 +13°C° 0.1 mm 1 m/S 629 mmHg 82%
    07:00 +13°C° 0.1 mm 1 m/S 629 mmHg 81%
    08:00 +15°C° 0.1 mm 1 m/S 630 mmHg 76%
    09:00 +18°C° 0.1 mm 1 m/S 630 mmHg 72%
    10:00 +19°C° 0.1 mm 1 m/S 631 mmHg 67%
    11:00 +20°C° 0.7 mm 1 m/S 631 mmHg 67%
    12:00 +20°C° 0.7 mm 1 m/S 631 mmHg 67%
    13:00 +21°C° 0.7 mm 1 m/S 631 mmHg 67%
    14:00 +20°C° 1 mm 1 m/S 631 mmHg 72%
    15:00 +19°C° 1 mm 1 m/S 631 mmHg 78%
    16:00 +18°C° 1 mm 2 m/S 630 mmHg 83%
    17:00 +16°C° 0.9 mm 1 m/S 630 mmHg 86%
    18:00 +15°C° 0.9 mm 1 m/S 630 mmHg 89%
    19:00 +14°C° 0.9 mm 1 m/S 629 mmHg 92%
    20:00 +13°C° 0.2 mm 1 m/S 630 mmHg 92%
    21:00 +13°C° 0.2 mm 1 m/S 630 mmHg 93%
    22:00 +13°C° 0.2 mm 1 m/S 630 mmHg 93%
    23:00 +12°C° 0 mm 1 m/S 630 mmHg 93%

    30 August, Freitag

    Zeit Temperatur Niederschläge Wind Luftdruck Luftfeuchtigkeit
    00:00 +12°C° 0 mm 1 m/S 630 mmHg 93%
    01:00 +11°C° 0 mm 0 m/S 630 mmHg 93%
    02:00 +10°C° 0.1 mm 0 m/S 630 mmHg 93%
    03:00 +10°C° 0.1 mm 0 m/S 630 mmHg 94%
    04:00 +10°C° 0.1 mm 0 m/S 630 mmHg 94%
    05:00 +11°C° 0.2 mm 0 m/S 630 mmHg 93%
    06:00 +11°C° 0.2 mm 0 m/S 631 mmHg 93%
    07:00 +12°C° 0.2 mm 0 m/S 631 mmHg 92%
    08:00 +13°C° 0.4 mm 0 m/S 632 mmHg 90%
    09:00 +14°C° 0.4 mm 0 m/S 632 mmHg 88%
    10:00 +16°C° 0.4 mm 1 m/S 633 mmHg 85%
    11:00 +18°C° 1.2 mm 1 m/S 633 mmHg 84%
    12:00 +18°C° 1.2 mm 1 m/S 633 mmHg 83%
    13:00 +19°C° 1.2 mm 1 m/S 633 mmHg 82%
    14:00 +18°C° 0.9 mm 1 m/S 632 mmHg 83%
    15:00 +18°C° 0.9 mm 1 m/S 632 mmHg 85%
    16:00 +18°C° 0.9 mm 1 m/S 632 mmHg 86%
    17:00 +16°C° 0.5 mm 1 m/S 632 mmHg 88%
    18:00 +13°C° 0.5 mm 0 m/S 631 mmHg 91%
    19:00 +12°C° 0.5 mm 0 m/S 631 mmHg 93%
    20:00 +12°C° 0.1 mm 0 m/S 631 mmHg 93%
    21:00 +12°C° 0.1 mm 1 m/S 631 mmHg 93%
    22:00 +11°C° 0.1 mm 1 m/S 631 mmHg 93%
    23:00 +11°C° 0 mm 1 m/S 631 mmHg 93%
    Mehr zeigen